EW4858 Weather Reports


Display with metric or nautical units.
time (UTC)temp
F
wind
direction
speed
MPH
gust
MPH
rain 1hr
in
rain 24hr
in
rain mn
in
humidity
%
barometer
mb
20260503233012 68 57 1.0 8.0 0.00 0.00 0.00 58 1008.6
20260503231516 67 82 5.0 9.0 0.00 0.00 0.00 60 1008.9
20260503230010 67 11 6.0 11.0 0.00 0.00 0.00 60 1008.9
20260503224514 66 32 2.0 7.0 0.00 0.00 0.00 62 1009.1
20260503223010 66 32 4.0 11.0 0.00 0.00 0.00 62 1009.1
20260503221508 66 98 3.0 8.0 0.00 0.00 0.00 64 1009.2
20260503220007 66 74 5.0 8.0 0.00 0.00 0.00 64 1009.3
20260503214508 66 20 6.0 10.0 0.00 0.00 0.00 65 1009.5
20260503213006 66 68 4.0 9.0 0.00 0.00 0.00 65 1009.3
20260503211505 66 51 7.0 11.0 0.00 0.00 0.00 66 1009.6
20260503210005 66 53 3.0 7.0 0.00 0.00 0.00 66 1009.5
20260503204510 66 54 3.0 7.0 0.00 0.00 0.00 67 1009.5
20260503203004 66 59 4.0 7.0 0.00 0.00 0.00 67 1009.8
20260503201506 65 82 4.0 10.0 0.00 0.00 0.00 67 1009.8
20260503200005 65 102 5.0 13.0 0.00 0.00 0.00 67 1010.1
20260503194502 66 58 6.0 14.0 0.00 0.00 0.00 67 1010.0
20260503193001 67 54 7.0 15.0 0.00 0.00 0.00 65 1010.0
20260503191559 67 30 3.0 9.0 0.00 0.00 0.00 65 1009.9
20260503190059 67 11 1.0 6.0 0.00 0.00 0.00 66 1009.9
20260503184605 67 5 0.0 5.0 0.00 0.00 0.00 67 1009.9
20260503183057 66 88 0.0 5.0 0.00 0.00 0.00 69 1009.9
20260503181601 66 38 1.0 5.0 0.00 0.00 0.00 69 1010.1
20260503180105 66 5 1.0 5.0 0.00 0.00 0.00 70 1010.1
20260503174552 65 30 0.0 5.0 0.00 0.00 0.00 71 1010.3
20260503173059 64 350 0.0 4.0 0.00 0.00 0.00 73 1010.3
20260503171546 63 355 0.0 0.0 0.00 0.00 0.00 75 1010.3
20260503081600 60 344 0.0 2.0 0.00 0.00 0.00 87 1009.5
20260503071602 60 29 1.0 5.0 0.00 0.00 0.00 86 1010.0
20260503060110 60 46 4.0 7.0 0.00 0.00 0.00 85 1009.9
20260503054607 60 12 3.0 8.0 0.00 0.00 0.00 85 1009.9
20260503053049 61 52 2.0 8.0 0.00 0.00 0.00 85 1009.8
20260503051549 60 62 1.0 7.0 0.00 0.00 0.00 85 1009.4
20260503050049 61 35 0.0 8.0 0.00 0.00 0.00 84 1009.1
20260503044548 61 46 2.0 6.0 0.00 0.00 0.00 84 1008.8
20260503043051 61 84 1.0 6.0 0.00 0.00 0.00 84 1008.5
20260503041547 61 44 0.0 3.0 0.00 0.00 0.00 83 1008.1
20260503040055 61 123 2.0 5.0 0.00 0.00 0.00 83 1007.9
20260503034548 62 80 2.0 7.0 0.00 0.00 0.00 83 1007.6
20260503033049 62 98 3.0 5.0 0.00 0.00 0.00 82 1007.4
20260503031545 63 84 2.0 7.0 0.00 0.00 0.00 80 1007.2
20260503030045 64 122 4.0 8.0 0.00 0.00 0.00 78 1007.1
20260503024544 65 43 3.0 5.0 0.00 0.00 0.00 76 1007.2
20260503023050 65 78 1.0 7.0 0.00 0.00 0.00 75 1007.2
20260503021551 66 88 3.0 8.0 0.00 0.00 0.00 74 1007.0
20260503020049 67 118 5.0 8.0 0.00 0.00 0.00 73 1007.0
20260503014544 68 130 4.0 8.0 0.00 0.00 0.00 71 1006.8
20260503013042 70 106 4.0 9.0 0.00 0.00 0.00 69 1006.8
20260503011541 71 46 3.0 7.0 0.00 0.00 0.00 67 1006.6
20260503010043 71 57 2.0 8.0 0.00 0.00 0.00 66 1006.7
20260503004555 72 49 3.0 11.0 0.00 0.00 0.00 65 1006.7
20260503003057 73 47 6.0 9.0 0.00 0.00 0.00 64 1006.6
20260503001553 74 70 5.0 10.0 0.00 0.00 0.00 63 1006.6
20260503000039 73 111 3.0 10.0 0.00 0.00 0.00 63 1006.4
20260502234538 74 91 5.0 11.0 0.00 0.00 0.00 64 1006.6